DW3733 Luzzi (cosenza) IT current weather conditions

sailwx.info

Wind from 070 at 1 knots gusting 2

Air temperature 17.2° C
Dewpoint 14.1° C

Last reported at 2014-Oct-01 20:23 UTC.
Time now 2014-Oct-02 06:32 UTC

Location: N 39°27' E 016°16'.
View on Google Maps.

See reports from other nearby stations

  
Tides and Currents Weather Stations Pressure Air Temp Water Temp Dewpoint Dewpoint Depression Visibility Wind Speed Wind Dir Waves Ship Positions
date/time (UTC)wind fromknots sea level pressurealtimeterstation pressurevisibilityair tempwater tempwave heightnotes
2014-Oct-01 20:23 070 1 gusting 2 17.2
2014-Oct-01 20:13 076 0 gusting 1 17.8
2014-Oct-01 20:03 18.3
2014-Oct-01 19:53 045 18.3
2014-Oct-01 19:43 18.9
2014-Oct-01 19:33 135 18.9
2014-Oct-01 19:23 119 18.3
2014-Oct-01 19:13 167 0 gusting 2 18.3
2014-Oct-01 19:03 078 0 gusting 2 18.9
2014-Oct-01 18:53 282 18.9
2014-Oct-01 18:43 270 18.3
2014-Oct-01 18:33 045 0 gusting 4 18.3
2014-Oct-01 18:23 053 1 gusting 2 18.9
2014-Oct-01 18:13 075 0 gusting 2 19.4
2014-Oct-01 18:03 225 20.6
2014-Oct-01 17:53 158 0 gusting 2 20.6
2014-Oct-01 17:43 098 0 gusting 2 21.1
2014-Oct-01 17:33 135 0 gusting 2 21.1
2014-Oct-01 17:23 180 0 gusting 1 21.7
2014-Oct-01 17:13 187 0 gusting 1 21.7
2014-Oct-01 17:03 180 0 gusting 1 22.2
2014-Oct-01 16:53 180 0 gusting 2 22.8
2014-Oct-01 16:43 180 0 gusting 2 22.8
2014-Oct-01 16:33 241 1 gusting 5 23.3
2014-Oct-01 16:23 191 2 gusting 6 23.9
2014-Oct-01 16:13 249 2 gusting 5 23.9
2014-Oct-01 16:03 186 1 gusting 5 24.4
2014-Oct-01 15:53 199 2 gusting 5 24.4
2014-Oct-01 15:43 198 2 gusting 6 25.0
2014-Oct-01 15:33 091 1 gusting 5 25.0
2014-Oct-01 15:23 271 1 gusting 5 25.6
2014-Oct-01 15:13 315 1 gusting 5 26.1
2014-Oct-01 15:03 344 1 gusting 6 26.1
2014-Oct-01 14:53 135 1 gusting 5 26.7
2014-Oct-01 14:43 061 0 gusting 5 27.2
2014-Oct-01 14:33 27.2
2014-Oct-01 14:23 195 2 gusting 6 27.2
2014-Oct-01 14:13 158 1 gusting 5 27.8
2014-Oct-01 14:03 315 1 gusting 6 27.8
2014-Oct-01 13:53 256 0 gusting 5 27.8
2014-Oct-01 13:43 175 4 gusting 6 27.8
2014-Oct-01 13:33 143 0 gusting 6 27.2
2014-Oct-01 13:23 110 2 gusting 8 27.8
2014-Oct-01 13:13 194 0 gusting 5 27.8
2014-Oct-01 13:03 347 2 gusting 6 27.8
2014-Oct-01 12:53 189 2 gusting 6 27.2
2014-Oct-01 12:43 181 2 gusting 8 27.2
2014-Oct-01 12:33 180 0 gusting 6 27.2
2014-Oct-01 12:23 180 3 gusting 6 27.8
2014-Oct-01 12:13 207 2 gusting 6 27.8
2014-Oct-01 12:03 165 2 gusting 5 27.8
2014-Oct-01 11:53 028 1 gusting 6 27.2
2014-Oct-01 11:43 200 2 gusting 6 27.2
2014-Oct-01 11:33 180 3 gusting 6 27.2
2014-Oct-01 11:23 227 0 gusting 2 27.2
2014-Oct-01 11:13 147 1 gusting 5 27.2
2014-Oct-01 11:03 225 2 gusting 6 26.7
2014-Oct-01 10:53 164 4 gusting 6 26.7
2014-Oct-01 10:43 034 1 gusting 5 26.7
2014-Oct-01 10:33 146 1 gusting 6 26.7
2014-Oct-01 10:23 253 0 gusting 2 26.1
2014-Oct-01 10:13 213 1 gusting 6 26.7
2014-Oct-01 10:03 180 1 gusting 5 26.1
2014-Oct-01 09:53 141 1 gusting 5 26.1
2014-Oct-01 09:43 148 1 gusting 6 25.6
2014-Oct-01 09:33 122 1 gusting 4 25.6
2014-Oct-01 09:23 023 1 gusting 4 25.6
2014-Oct-01 09:13 183 1 gusting 5 25.0
2014-Oct-01 09:03 180 1 gusting 5 24.4
2014-Oct-01 08:53 187 1 gusting 4 23.9
2014-Oct-01 08:43 173 1 gusting 4 23.3
2014-Oct-01 08:33 225 1 gusting 2 22.8
2014-Oct-01 08:23 315 1 gusting 2 22.2
2014-Oct-01 08:13 024 0 gusting 1 21.7
2014-Oct-01 08:03 180 0 gusting 2 21.7
2014-Oct-01 07:53 180 0 gusting 1 21.1
2014-Oct-01 07:43 315 20.6
2014-Oct-01 07:33 182 20.0
2014-Oct-01 07:23 090 0 gusting 1 19.4
2014-Oct-01 07:13 057 0 gusting 1 18.3
2014-Oct-01 07:03 108 17.8
2014-Oct-01 06:53 142 0 gusting 2 17.2
2014-Oct-01 06:43 173 0 gusting 0 16.7
2014-Oct-01 06:33 180 16.1
2014-Oct-01 06:23 084 15.0
2014-Oct-01 06:13 212 13.9
2014-Oct-01 06:03 180 13.3
2014-Oct-01 05:53 045 12.2
2014-Oct-01 05:43 090 0 gusting 1 15.6
2014-Sep-30 20:13 045 15.6
2014-Sep-30 20:03 090 0 gusting 1 16.1
2014-Sep-30 19:53 026 16.7
2014-Sep-30 19:43 315 16.1
2014-Sep-30 19:33 090 16.1
2014-Sep-30 19:23 045 0 gusting 2 16.7
2014-Sep-30 19:13 135 17.2
2014-Sep-30 19:03 270 17.2
2014-Sep-30 18:53 225 17.8
2014-Sep-30 18:43 090 17.8
2014-Sep-30 18:33 090 0 gusting 1 17.8
2014-Sep-30 18:23 135 0 gusting 0 17.8
2014-Sep-30 18:13 302 17.8
2014-Sep-30 18:03 055 0 gusting 2 18.3
2014-Sep-30 17:53 090 1 gusting 2 18.9
2014-Sep-30 17:43 045 19.4
2014-Sep-30 17:33 090 20.6
2014-Sep-30 17:23 069 0 gusting 2 21.1
2014-Sep-30 17:13 090 0 gusting 2 21.7
2014-Sep-30 17:03 145 22.2
2014-Sep-30 16:53 135 0 gusting 1 22.8
2014-Sep-30 16:43 135 23.3
2014-Sep-30 16:33 180 0 gusting 1 23.9
2014-Sep-30 16:23 180 0 gusting 2 23.9
2014-Sep-30 16:13 213 0 gusting 2 24.4
2014-Sep-30 16:03 175 0 gusting 1 24.4
2014-Sep-30 15:53 221 0 gusting 5 25.0
2014-Sep-30 15:43 302 0 gusting 2 25.0
2014-Sep-30 15:33 262 1 gusting 5 25.0
2014-Sep-30 15:23 208 1 gusting 6 25.0
2014-Sep-30 15:13 190 1 gusting 6 25.6
2014-Sep-30 15:03 298 1 gusting 6 25.6
2014-Sep-30 14:53 234 0 gusting 5 26.1
2014-Sep-30 14:43 277 0 gusting 5 26.1
2014-Sep-30 14:33 315 1 gusting 5 26.7
2014-Sep-30 14:23 109 1 gusting 5 26.7
2014-Sep-30 14:13 26.7
2014-Sep-30 14:03 145 1 gusting 6 26.7
2014-Sep-30 13:53 282 1 gusting 5 26.7
2014-Sep-30 13:43 017 2 gusting 7 26.7
2014-Sep-30 13:33 233 0 gusting 6 27.2
2014-Sep-30 13:23 315 0 gusting 5 27.2
2014-Sep-30 13:13 206 0 gusting 6 27.2
2014-Sep-30 13:03 078 1 gusting 7 27.2
2014-Sep-30 12:53 319 2 gusting 6 27.2
2014-Sep-30 12:43 153 0 gusting 4 27.2
2014-Sep-30 12:33 270 0 gusting 4 27.2
2014-Sep-30 12:23 080 0 gusting 6 27.2
2014-Sep-30 12:13 180 1 gusting 5 27.2
2014-Sep-30 12:03 197 1 gusting 5 27.2
2014-Sep-30 11:53 098 1 gusting 4 27.2
2014-Sep-30 11:43 223 2 gusting 5 26.7
2014-Sep-30 11:33 346 0 gusting 4 26.7
2014-Sep-30 11:23 210 1 gusting 6 26.7
2014-Sep-30 11:13 052 0 gusting 6 26.7
2014-Sep-30 11:03 304 1 gusting 5 26.7
2014-Sep-30 10:53 038 1 gusting 5 26.1
2014-Sep-30 10:43 059 0 gusting 4 26.1
2014-Sep-30 10:33 135 1 gusting 4 25.6
2014-Sep-30 10:23 339 2 gusting 4 25.6
2014-Sep-30 10:13 008 0 gusting 4 25.0
2014-Sep-30 10:03 030 1 gusting 5 24.4
2014-Sep-30 09:53 065 1 gusting 4 24.4
2014-Sep-30 09:43 025 1 gusting 2 23.9
2014-Sep-30 09:33 322 0 gusting 2 23.9
2014-Sep-30 09:23 23.3
2014-Sep-30 09:13 220 0 gusting 1 23.3
2014-Sep-30 09:03 039 0 gusting 1 22.8
2014-Sep-30 08:53 136 0 gusting 4 22.8
2014-Sep-30 08:43 315 0 gusting 4 22.2
2014-Sep-30 08:33 208 0 gusting 2 21.7
2014-Sep-30 08:23 180 0 gusting 2 21.1
2014-Sep-30 08:13 180 20.0
2014-Sep-30 08:03 203 0 gusting 2 19.4
2014-Sep-30 07:53 225 0 gusting 2 18.9
2014-Sep-30 07:43 180 0 gusting 2 18.3
2014-Sep-30 07:33 180 0 gusting 2 17.8
2014-Sep-30 07:23 158 1 gusting 2 17.2
2014-Sep-30 07:13 180 16.7
2014-Sep-30 07:03 274 0 gusting 2 15.6
2014-Sep-30 06:53 219 0 gusting 2 15.0
2014-Sep-30 06:43 179 0 gusting 2 14.4
2014-Sep-30 06:33 180 0 gusting 1 14.4
2014-Sep-30 06:23 302 13.9
2014-Sep-30 06:13 031 13.3
2014-Sep-30 06:03 090 0 gusting 1 12.2